{"data":{"norad_id":62756,"intl_designator":"2025-014X","name":"USA 485","alt_names":[],"object_type":"PAYLOAD","status":"ACTIVE","operator":null,"country":"US","launch_date":"2025-01-21","launch_site_code":"AFETR","launch_vehicle":null,"mission":null,"orbit_class":"UNKNOWN","rcs_meters":null,"size_class":null,"mass_kg":null,"dimensions":null,"purposes":[],"wikipedia_slug":null,"has_3d_model":false,"image_url":null,"decayed_at":null,"tle_current":{"epoch":"2026-09-22T09:32:16.326816Z","epoch_age_seconds":155700,"freshness":"FRESH","line1":"1 62756U 25014X   26265.39741119  .00199275  00000+0  11285-2 0  9995","line2":"2 62756  42.9978 239.7940 0000419 230.4502 129.6331 15.77715025 96113","mean_motion":15.77715025,"eccentricity":4.19e-5,"inclination_deg":42.9978,"raan_deg":239.794,"arg_perigee_deg":230.4502,"mean_anomaly_deg":129.6331,"bstar":0.0011285,"rev_number":9611,"period_min":91.271235754378,"perigee_km":336.63498312256,"apogee_km":337.19770459278,"semimajor_km":6715.0533438577,"source":"CELESTRAK","updated_at":"2026-09-23T09:00:21.599685Z"}}}